Garrison, ND

10:39 AM CST on November 20, 2017 (GMT -0600)
Garrison

Weather History for KN60 - November, 2011

Change the Weather History Date:

Wednesday, November 2, 2011

  Actual Average Record
Temperature  
Mean Temperature 35 °F -  
Max Temperature 47 °F - 64 °F (2008)
Min Temperature 22 °F - 6 °F (2003)
Degree Days  
Heating Degree Days 30    
Month to date heating degree days 58  
Cooling Degree Days 0    
Month to date cooling degree days 0  
Year to date cooling degree days 324  
Moisture  
Dew Point 21 °F    
Average Humidity 62    
Maximum Humidity 92    
Minimum Humidity 31    
Precipitation  
Precipitation 0.00 in - 0.22 in (2012)
Month to date precipitation 0.00  
Year to date precipitation 17.00  
Sea Level Pressure  
Sea Level Pressure 30.35 in    
Wind  
Wind Speed 10 mph (West)    
Max Wind Speed 18 mph    
Max Gust Speed 23 mph    
T = Trace of Precipitation, MM = Missing Value Source: NWS Daily Summary

Daily Weather History Graph

Daily Weather History Graph

Search for Another Location

Airport or City:

Trip Planner

Search our weather history database for the weather conditions in past years. The results will help you decide how hot, cold, wet, or windy it might be!

Date:

Astronomy

Nov. 02, 2011 Rise Set
Actual Time 8:31 AM CDT 6:26 PM CDT
Civil Twilight 7:58 AM CDT 6:59 PM CDT
Nautical Twilight 7:22 AM CDT 7:35 PM CDT
Astronomical Twilight 6:46 AM CDT 8:11 PM CDT
Moon 2:50 PM CDT (11/2) 12:10 AM CDT (11/2)
Length of Visible Light 11h 00m
Length of Day
9h 55m
Waxing Crescent, 50% of the Moon is Illuminated
Nov 2
Waxing Crescent
Nov 10
Full
Nov 18
Last Quarter
Nov 25
New
Dec 2
First Quarter

Hourly Weather History & Observations

Time (CDT) Temp. Windchill Dew Point Humidity Pressure Visibility Wind Dir Wind Speed Gust Speed Precip Events Conditions
12:52 AM 28.0 °F 20.0 °F 19.9 °F 72% 30.33 in - WNW 8.1 mph - N/A   Unknown
1:52 AM 28.9 °F 20.4 °F 21.0 °F 72% 30.34 in - WNW 9.2 mph - N/A   Unknown
2:52 AM 28.0 °F 20.0 °F 21.0 °F 75% 30.35 in - WNW 8.1 mph - N/A   Unknown
3:52 AM 28.0 °F 18.1 °F 21.0 °F 75% 30.35 in - WNW 11.5 mph - N/A   Unknown
4:52 AM 26.1 °F 15.6 °F 19.9 °F 78% 30.36 in - WNW 11.5 mph - N/A   Unknown
5:52 AM 24.1 °F 14.4 °F 19.0 °F 81% 30.38 in - WNW 9.2 mph - N/A   Unknown
6:52 AM 25.0 °F 14.8 °F 21.0 °F 85% 30.40 in - WNW 10.4 mph - N/A   Unknown
7:52 AM 26.1 °F 18.4 °F 21.0 °F 81% 30.41 in - WNW 6.9 mph - N/A   Unknown
8:52 AM 21.9 °F 13.4 °F 19.9 °F 92% 30.43 in - West 6.9 mph - N/A   Unknown
9:52 AM 30.9 °F 21.7 °F 23.0 °F 72% 30.43 in - WNW 11.5 mph - N/A   Unknown
10:52 AM 35.1 °F 27.4 °F 24.1 °F 64% 30.43 in - West 10.4 mph - N/A   Unknown
11:52 AM 39.0 °F 32.3 °F 24.1 °F 55% 30.42 in - WNW 10.4 mph - N/A   Unknown
12:52 PM 42.1 °F 35.7 °F 24.1 °F 49% 30.42 in - WNW 11.5 mph - N/A   Unknown
1:52 PM 45.0 °F 38.5 °F 21.9 °F 40% 30.38 in - WNW 13.8 mph 20.7 mph N/A   Unknown
2:52 PM 46.0 °F 39.6 °F 19.0 °F 34% 30.36 in - WNW 15.0 mph - N/A   Unknown
3:52 PM 46.9 °F - 18.0 °F 32% 30.34 in - West 12.7 mph - N/A   Unknown
4:52 PM 46.0 °F 40.2 °F 19.0 °F 34% 30.33 in - West 12.7 mph - N/A   Unknown
5:52 PM 42.1 °F 37.7 °F 19.0 °F 40% 30.34 in - West 6.9 mph - N/A   Unknown
6:52 PM 33.1 °F 26.9 °F 18.0 °F 54% 30.33 in - WSW 6.9 mph - N/A   Unknown
7:52 PM 33.1 °F 28.7 °F 19.9 °F 59% 30.31 in - SW 4.6 mph - N/A   Unknown
8:52 PM 34.0 °F 26.6 °F 23.0 °F 64% 30.30 in - SSW 9.2 mph - N/A   Unknown
9:52 PM 35.1 °F 27.4 °F 23.0 °F 61% 30.27 in - SSW 10.4 mph - N/A   Unknown
10:52 PM 34.0 °F 25.5 °F 21.9 °F 61% 30.25 in - SSW 11.5 mph - N/A   Unknown
11:52 PM 33.1 °F 26.1 °F 21.9 °F 64% 30.24 in - SW 8.1 mph - N/A   Unknown